Location: Gad�tanya
(48.0500°N, 20.8500°E)
Time: 23:17:37
(UTC+00:00)

Meteor 1-29 - Pass Details

Date: 05 July 2020
Orbit: 440 x 459 km, 97.7° (Epoch: 05 August)

Event Time Altitude Azimuth Distance (km) Brightness Sun altitude
Rises 23:23:06 0° 15° (NNE) 2,452 8.3 -18.7°
Reaches altitude 10° 23:25:08 10° 19° (NNE) 1,578 6.9 -18.6°
Maximum altitude 23:28:30 65° 102° (ESE) 496 3.0 -18.5°
Enters shadow 23:29:02 54° 152° (SSE) 552 3.0 -18.5°
